DW1024 Weather Reports


time (UTC)temp
F
wind
direction
speed
knots
gust
knots
rain 1hr
in
rain 24hr
in
rain mn
in
humidity
%
barometer
mb
20260506123437 65 80 3.5 8.7 0.00 0.19 0.00 65 1005.5
20260506121936 65 55 1.7 5.2 0.00 0.19 0.00 65 1005.6
20260506114937 64 28 2.6 7.0 0.00 0.19 0.00 65 1006.0
20260506113436 64 71 1.7 6.1 0.00 0.19 0.00 65 1006.0
20260506110437 63 51 1.7 7.0 0.00 0.19 0.00 64 1006.4
20260506104937 63 32 0.9 7.8 0.00 0.19 0.00 64 1006.7
20260506101931 63 69 1.7 5.2 0.00 0.19 0.00 63 1007.0
20260506100431 63 28 1.7 7.0 0.00 0.19 0.00 63 1007.1
20260506094931 63 30 1.7 5.2 0.00 0.19 0.00 63 1007.3
20260506093433 63 304 0.9 3.5 0.00 0.19 0.00 67 1007.2
20260506084932 62 54 0.9 4.3 0.00 0.19 0.00 68 1007.4
20260506083425 62 123 1.7 5.2 0.00 0.19 0.00 68 1007.2
20260506081925 63 38 0.9 2.6 0.00 0.19 0.00 70 1007.3
20260506080426 62 112 0.9 3.5 0.00 0.19 0.00 67 1007.5
20260506073423 60 309 0.0 2.6 0.00 0.19 0.00 73 1007.7
20260506071745 58 200 0.0 0.0 0.00 0.19 0.00 78 1008.0
20260506060413 53 200 0.0 0.0 0.00 0.19 0.00 94 1008.1
20260506050412 50 246 0.0 0.0 0.00 0.19 0.00 94 1008.5
20260506044911 49 246 0.0 0.9 0.00 0.19 0.00 94 1008.5
20260506043409 49 246 0.0 0.9 0.00 0.19 0.00 93 1008.4
20260506041909 49 246 0.0 0.9 0.00 0.19 0.00 93 1008.5
20260506034909 49 246 0.0 0.9 0.00 0.19 0.00 93 1008.6
20260506033403 49 246 0.0 0.9 0.00 0.19 0.00 93 1008.7
20260506030403 49 246 0.0 2.6 0.00 0.19 0.00 93 1008.9
20260506024901 49 178 0.0 0.9 0.00 0.19 0.00 93 1009.2
20260506021902 49 179 0.9 2.6 0.00 0.19 0.00 92 1009.1
20260506020404 49 223 0.9 1.7 0.00 0.19 0.00 92 1008.9
20260506014904 49 223 0.0 0.9 0.00 0.19 0.00 92 1009.1
20260506013402 50 223 0.0 0.0 0.00 0.19 0.00 92 1009.1
20260506011907 51 223 0.0 0.9 0.00 0.19 0.00 92 1009.2
20260506010402 51 223 0.0 0.9 0.00 0.19 0.00 92 1009.5
20260506004903 51 223 0.0 2.6 0.00 0.19 0.00 92 1009.3
20260506003401 52 223 0.0 1.7 0.00 0.19 0.00 92 1009.5
20260506001903 52 223 0.0 1.7 0.00 0.19 0.00 92 1009.5
20260506000402 52 223 0.0 0.0 0.00 0.19 0.00 92 1009.8
20260505234902 53 223 0.0 0.9 0.00 0.19 0.00 92 1009.9
20260505233404 53 223 0.0 1.7 0.00 0.19 0.00 92 1010.0
20260505231901 53 223 0.9 3.5 0.00 0.19 0.00 92 1010.3
20260505230405 53 230 0.9 3.5 0.00 0.19 0.00 92 1010.3
20260505224904 54 213 1.7 6.1 0.00 0.19 0.00 92 1010.3
20260505220357 55 283 1.7 6.1 0.04 0.19 0.00 91 1010.6
20260505214857 55 242 0.9 4.3 0.08 0.15 0.19 91 1010.5
20260505213400 55 306 1.7 6.1 0.12 0.15 0.19 90 1010.7
20260505211858 55 295 2.6 7.8 0.11 0.15 0.17 89 1010.6
20260505210359 56 195 0.9 4.3 0.10 0.15 0.15 88 1010.5
20260505204859 56 196 1.7 4.3 0.06 0.05 0.11 87 1010.3
20260505201858 57 219 1.7 4.3 0.04 0.05 0.06 84 1009.7
20260505200350 58 236 0.9 4.3 0.03 0.05 0.05 82 1009.5
20260505193353 60 168 0.0 2.6 0.01 0.02 0.03 76 1008.5
20260505191847 60 269 0.0 1.7 0.00 0.02 0.02 74 1008.3
20260505190349 61 269 0.0 1.7 0.00 0.02 0.02 70 1008.0
20260505184850 61 269 0.0 2.6 0.00 0.02 0.02 68 1007.7
20260505181850 61 24 1.7 5.2 0.00 0.02 0.02 65 1007.6
20260505180346 62 283 1.7 7.0 0.00 0.02 0.02 67 1007.5
20260505173349 63 198 1.7 5.2 0.00 0.02 0.02 66 1007.2
20260505170344 64 74 1.7 4.3 0.00 0.02 0.02 69 1007.0
20260505164841 65 176 1.7 6.1 0.00 0.02 0.02 68 1007.0
20260505161841 64 73 0.9 2.6 0.00 0.02 0.02 71 1007.1
20260505160342 62 57 1.7 4.3 0.00 0.02 0.02 78 1007.1
20260505153341 61 51 1.7 5.2 0.02 0.01 0.02 82 1007.3
20260505151842 62 341 0.0 4.3 0.02 0.01 0.02 82 1007.6
20260505150342 63 264 0.9 2.6 0.02 0.01 0.02 75 1007.6
20260505140341 71 271 1.7 7.8 0.00 0.00 0.00 46 1006.8
20260505124835 75 220 1.7 5.2 0.00 0.00 0.00 43 1006.7